• In United Kingdom
  • List of Countries
  • For 7 days
  • Water Temperature
  • Satellite Maps
  • Weather Map
  • Weather Widgets
  • user-avatar
    Login

    Hourly Weather Diapaga

    Today, 23 September, Sunday

    Time Temperature Precipitation Wind Pressure Humidity
    00:00 +27°C° 0 mm 1 mps 735 mmHg 80%
    01:00 +27°C° 0.1 mm 1 mps 735 mmHg 82%
    02:00 +26°C° 0.1 mm 1 mps 734 mmHg 84%
    03:00 +26°C° 0.1 mm 2 mps 734 mmHg 86%
    04:00 +26°C° 0 mm 2 mps 734 mmHg 87%
    05:00 +26°C° 0 mm 2 mps 734 mmHg 87%
    06:00 +26°C° 0 mm 2 mps 734 mmHg 88%
    07:00 +28°C° 0.1 mm 2 mps 735 mmHg 79%
    08:00 +30°C° 0.1 mm 2 mps 735 mmHg 70%
    09:00 +33°C° 0.1 mm 3 mps 735 mmHg 60%
    10:00 +35°C° 0 mm 2 mps 735 mmHg 54%
    11:00 +37°C° 0 mm 2 mps 735 mmHg 47%
    12:00 +39°C° 0 mm 2 mps 735 mmHg 40%
    13:00 +39°C° 0 mm 2 mps 734 mmHg 40%
    14:00 +39°C° 0 mm 2 mps 734 mmHg 40%
    15:00 +38°C° 0 mm 2 mps 733 mmHg 39%
    16:00 +37°C° 0 mm 2 mps 733 mmHg 43%
    17:00 +36°C° 0 mm 2 mps 733 mmHg 47%
    18:00 +34°C° 0 mm 2 mps 733 mmHg 51%
    19:00 +32°C° 0 mm 2 mps 733 mmHg 55%
    20:00 +32°C° 0 mm 2 mps 734 mmHg 58%
    21:00 +31°C° 0 mm 2 mps 734 mmHg 62%
    22:00 +30°C° 0 mm 2 mps 734 mmHg 64%
    23:00 +30°C° 0 mm 3 mps 734 mmHg 67%

    Tomorrow, 24 September, Monday

    Time Temperature Precipitation Wind Pressure Humidity
    00:00 +29°C° 0 mm 3 mps 734 mmHg 70%
    01:00 +29°C° 0 mm 3 mps 734 mmHg 71%
    02:00 +28°C° 0 mm 2 mps 733 mmHg 73%
    03:00 +28°C° 0 mm 2 mps 733 mmHg 75%
    04:00 +28°C° 0 mm 3 mps 733 mmHg 76%
    05:00 +27°C° 0 mm 3 mps 733 mmHg 77%
    06:00 +27°C° 0 mm 3 mps 734 mmHg 79%
    07:00 +29°C° 0 mm 3 mps 734 mmHg 73%
    08:00 +31°C° 0 mm 3 mps 735 mmHg 66%
    09:00 +34°C° 0 mm 3 mps 735 mmHg 60%
    10:00 +35°C° 0 mm 3 mps 735 mmHg 54%
    11:00 +37°C° 0 mm 3 mps 735 mmHg 48%
    12:00 +39°C° 0 mm 2 mps 735 mmHg 42%
    13:00 +39°C° 0 mm 2 mps 734 mmHg 41%
    14:00 +40°C° 0 mm 1 mps 733 mmHg 39%
    15:00 +40°C° 0 mm 1 mps 732 mmHg 37%
    16:00 +37°C° 0 mm 1 mps 732 mmHg 41%
    17:00 +37°C° 0 mm 2 mps 732 mmHg 46%
    18:00 +35°C° 0 mm 2 mps 732 mmHg 50%
    19:00 +34°C° 0.1 mm 3 mps 733 mmHg 54%
    20:00 +33°C° 0.1 mm 3 mps 734 mmHg 59%
    21:00 +33°C° 0.1 mm 4 mps 734 mmHg 63%
    22:00 +32°C° 0 mm 4 mps 734 mmHg 66%
    23:00 +30°C° 0 mm 3 mps 733 mmHg 69%

    Day after tomorrow, 25 September, Tuesday

    Time Temperature Precipitation Wind Pressure Humidity
    00:00 +29°C° 0 mm 3 mps 733 mmHg 72%
    01:00 +28°C° 1.5 mm 3 mps 733 mmHg 78%
    02:00 +28°C° 1.5 mm 4 mps 733 mmHg 84%
    03:00 +27°C° 1.5 mm 4 mps 733 mmHg 89%
    04:00 +27°C° 0 mm 4 mps 734 mmHg 90%
    05:00 +26°C° 0 mm 4 mps 734 mmHg 90%
    06:00 +26°C° 0 mm 4 mps 734 mmHg 90%
    07:00 +28°C° 0 mm 4 mps 735 mmHg 83%
    08:00 +30°C° 0 mm 4 mps 735 mmHg 76%
    09:00 +32°C° 0 mm 4 mps 736 mmHg 69%
    10:00 +34°C° 0 mm 4 mps 735 mmHg 63%
    11:00 +36°C° 0 mm 3 mps 735 mmHg 56%
    12:00 +37°C° 0 mm 3 mps 734 mmHg 49%
    13:00 +38°C° 0 mm 3 mps 734 mmHg 47%
    14:00 +38°C° 0 mm 2 mps 733 mmHg 45%
    15:00 +38°C° 0 mm 2 mps 732 mmHg 43%
    16:00 +37°C° 0 mm 2 mps 732 mmHg 49%
    17:00 +35°C° 0 mm 2 mps 732 mmHg 54%
    18:00 +34°C° 0 mm 2 mps 733 mmHg 59%
    19:00 +32°C° 0 mm 2 mps 733 mmHg 62%
    20:00 +31°C° 0 mm 2 mps 734 mmHg 65%
    21:00 +31°C° 0 mm 2 mps 734 mmHg 68%
    22:00 +30°C° 0.3 mm 3 mps 734 mmHg 73%
    23:00 +29°C° 0.3 mm 3 mps 734 mmHg 78%

    26 September, Wednesday

    Time Temperature Precipitation Wind Pressure Humidity
    00:00 +28°C° 0.3 mm 3 mps 734 mmHg 82%
    01:00 +28°C° 0 mm 3 mps 734 mmHg 84%
    02:00 +27°C° 0 mm 3 mps 733 mmHg 85%
    03:00 +27°C° 0 mm 3 mps 733 mmHg 87%
    04:00 +27°C° 0 mm 3 mps 733 mmHg 87%
    05:00 +27°C° 0 mm 3 mps 734 mmHg 88%
    06:00 +26°C° 0 mm 3 mps 734 mmHg 88%
    07:00 +28°C° 0 mm 3 mps 735 mmHg 80%
    08:00 +30°C° 0 mm 3 mps 735 mmHg 72%
    09:00 +33°C° 0 mm 4 mps 736 mmHg 64%
    10:00 +35°C° 0 mm 3 mps 735 mmHg 57%
    11:00 +36°C° 0 mm 3 mps 735 mmHg 51%
    12:00 +38°C° 0 mm 2 mps 735 mmHg 44%
    13:00 +38°C° 0 mm 2 mps 734 mmHg 44%
    14:00 +37°C° 0 mm 2 mps 733 mmHg 45%
    15:00 +37°C° 0 mm 2 mps 733 mmHg 45%
    16:00 +36°C° 0 mm 2 mps 733 mmHg 49%
    17:00 +34°C° 0 mm 2 mps 733 mmHg 53%
    18:00 +32°C° 0 mm 2 mps 733 mmHg 57%
    19:00 +31°C° 0 mm 2 mps 733 mmHg 58%
    20:00 +31°C° 0 mm 2 mps 734 mmHg 60%
    21:00 +30°C° 0 mm 3 mps 735 mmHg 62%
    22:00 +29°C° 0 mm 3 mps 734 mmHg 62%
    23:00 +29°C° 0 mm 3 mps 734 mmHg 63%

    27 September, Thursday

    Time Temperature Precipitation Wind Pressure Humidity
    00:00 +28°C° 0 mm 3 mps 734 mmHg 64%
    01:00 +28°C° 0.2 mm 3 mps 734 mmHg 67%
    02:00 +28°C° 0.2 mm 3 mps 734 mmHg 70%
    03:00 +27°C° 0.2 mm 3 mps 733 mmHg 73%
    04:00 +27°C° 0 mm 2 mps 734 mmHg 76%
    05:00 +27°C° 0 mm 2 mps 734 mmHg 79%
    06:00 +27°C° 0 mm 2 mps 734 mmHg 82%
    07:00 +28°C° 0 mm 3 mps 735 mmHg 77%
    08:00 +30°C° 0 mm 4 mps 735 mmHg 71%
    09:00 +32°C° 0 mm 5 mps 735 mmHg 66%
    10:00 +34°C° 0 mm 4 mps 735 mmHg 60%
    11:00 +36°C° 0 mm 4 mps 734 mmHg 53%
    12:00 +37°C° 0 mm 3 mps 734 mmHg 47%
    13:00 +38°C° 0 mm 3 mps 733 mmHg 44%
    14:00 +38°C° 0 mm 2 mps 733 mmHg 41%
    15:00 +39°C° 0 mm 1 mps 732 mmHg 39%
    16:00 +37°C° 0 mm 2 mps 732 mmHg 43%
    17:00 +36°C° 0 mm 2 mps 732 mmHg 46%
    18:00 +35°C° 0 mm 2 mps 733 mmHg 50%
    19:00 +34°C° 0 mm 2 mps 733 mmHg 54%
    20:00 +32°C° 0 mm 2 mps 733 mmHg 57%
    21:00 +31°C° 0 mm 3 mps 733 mmHg 60%
    22:00 +31°C° 0.3 mm 3 mps 733 mmHg 64%
    23:00 +30°C° 0.3 mm 3 mps 733 mmHg 67%

    28 September, Friday

    Time Temperature Precipitation Wind Pressure Humidity
    00:00 +29°C° 0.3 mm 3 mps 733 mmHg 71%
    01:00 +29°C° 0.2 mm 3 mps 733 mmHg 74%
    02:00 +28°C° 0.2 mm 3 mps 732 mmHg 77%
    03:00 +28°C° 0.2 mm 3 mps 732 mmHg 80%
    04:00 +27°C° 0 mm 3 mps 733 mmHg 81%
    05:00 +27°C° 0 mm 3 mps 734 mmHg 83%
    06:00 +27°C° 0 mm 3 mps 734 mmHg 84%
    07:00 +29°C° 0 mm 4 mps 735 mmHg 77%
    08:00 +30°C° 0 mm 4 mps 735 mmHg 69%
    09:00 +33°C° 0 mm 5 mps 735 mmHg 62%
    10:00 +34°C° 0.1 mm 5 mps 735 mmHg 56%
    11:00 +35°C° 0.1 mm 5 mps 734 mmHg 51%
    12:00 +37°C° 0.1 mm 4 mps 733 mmHg 45%
    13:00 +37°C° 0 mm 4 mps 733 mmHg 42%
    14:00 +38°C° 0 mm 3 mps 732 mmHg 39%
    15:00 +39°C° 0 mm 2 mps 732 mmHg 35%
    16:00 +37°C° 0 mm 2 mps 732 mmHg 40%
    17:00 +36°C° 0 mm 2 mps 733 mmHg 44%
    18:00 +34°C° 0 mm 2 mps 733 mmHg 49%
    19:00 +32°C° 0.4 mm 2 mps 733 mmHg 57%
    20:00 +30°C° 0.4 mm 3 mps 734 mmHg 66%
    21:00 +29°C° 0.4 mm 3 mps 734 mmHg 75%
    22:00 +29°C° 0 mm 3 mps 734 mmHg 76%
    23:00 +28°C° 0 mm 3 mps 733 mmHg 77%
    Show more